Wind_Speed
85 86 87 88 89 90 91 91 91 91 91 91 90 90 90 91 91 92 93 94 95 96 97 97 97 95 93 91 88 84 81 76 73 69 65 61 57 54 52 52 54 57 60 62 64 65 65 64 62 61 60 60 61 62 63 64 65 66 67 69 70 72 75 77 80 83 85 88 90 93 97 102 107 112 116 120 122 123 125 127 130 134 137 140 142 146
85 86 87 87 88 89 90 90 90 90 90 90 90 90 90 91 91 92 93 94 96 97 97 97 96 94 92 89 86 82 78 75 71 67 63 59 55 51 49 49 51 54 57 60 62 63 63 62 60 59 59 59 60 61 62 63 64 65 66 68 69 72 74 77 79 82 84 86 89 93 98 102 107 112 116 119 121 122 123 126 130 134 137 140 144 147
85 86 86 87 87 88 89 89 89 89 89 89 89 89 90 91 91 93 94 95 96 97 97 97 95 93 91 87 84 80 77 73 70 66 63 58 53 49 47 47 49 52 55 58 60 61 61 60 59 58 58 58 59 60 61 61 62 64 65 67 69 71 74 76 79 81 83 86 89 94 98 102 106 110 114 117 119 121 123 127 131 135 138 141 145 148
85 85 86 86 86 87 87 87 88 88 88 88 88 89 90 91 92 93 94 96 97 97 97 96 95 92 89 86 82 79 75 73 69 66 62 58 53 48 45 45 46 49 53 56 59 59 59 58 57 56 57 57 58 59 60 60 61 63 64 66 68 71 73 75 78 80 82 86 90 94 98 101 105 109 112 116 118 121 124 128 132 136 139 142 145 148
84 84 85 85 85 85 86 86 87 87 87 87 88 89 90 91 92 94 95 96 97 97 97 96 94 91 88 84 81 77 74 72 69 66 62 57 52 48 45 44 45 48 51 55 57 58 57 56 55 55 56 56 57 58 58 59 60 62 64 66 68 70 72 75 77 80 83 87 91 94 97 100 104 107 111 115 118 121 125 129 133 137 140 143 146 148
83 83 83 84 84 84 85 86 86 86 86 87 87 88 90 91 92 94 95 96 97 97 96 95 93 90 87 83 80 76 74 71 69 66 63 58 53 48 45 43 44 46 50 53 55 56 55 54 53 54 54 55 56 57 58 59 60 61 63 65 67 70 72 74 77 80 84 88 91 94 97 100 103 106 110 114 118 122 126 131 134 138 141 143 146 149
82 82 82 83 83 84 84 85 85 86 86 86 87 88 90 91 92 94 95 96 97 97 96 94 91 89 86 82 78 75 73 71 69 67 64 59 54 50 46 44 44 46 48 51 53 54 53 52 52 52 53 54 55 56 57 58 59 61 62 65 67 69 72 74 77 81 85 88 91 93 96 99 102 106 110 114 119 124 128 132 135 138 141 144 147 150
81 81 82 82 83 84 84 84 85 85 86 87 87 89 90 91 92 94 95 96 97 96 95 93 90 87 84 80 77 74 72 70 69 67 64 60 56 52 48 46 45 46 48 50 51 52 51 50 50 51 52 53 54 55 56 57 58 60 62 64 67 69 72 75 78 82 86 88 90 93 95 98 101 105 110 115 120 125 129 133 136 139 142 145 147 150
80 81 82 82 83 83 84 84 84 85 86 86 88 89 90 92 93 93 94 95 95 95 93 91 88 84 81 77 74 72 70 68 67 66 64 60 57 53 50 48 47 47 48 49 50 50 49 49 49 50 51 52 53 54 55 56 58 60 62 64 66 69 72 75 79 82 85 87 90 92 95 98 101 105 110 115 120 125 130 133 137 140 143 146 148 151
80 80 81 82 82 82 83 83 84 84 85 86 87 88 90 91 92 93 94 94 94 92 90 87 85 81 77 73 70 68 66 65 64 64 62 59 56 53 51 49 48 47 48 48 48 48 47 47 48 49 50 51 52 53 54 56 57 59 61 63 66 69 72 76 79 82 84 87 89 92 94 97 100 105 110 115 121 126 130 134 138 141 144 147 150 152
79 80 81 81 81 81 81 82 83 84 85 86 87 88 89 90 91 93 94 93 91 89 86 83 80 77 74 70 67 64 63 62 62 61 60 58 55 52 50 49 48 47 47 47 46 46 46 46 46 47 49 50 51 52 53 55 57 59 61 63 66 69 72 75 78 81 84 86 89 91 93 96 100 104 110 116 122 127 131 135 138 142 145 148 150 153
79 80 80 80 80 81 81 82 82 83 84 86 87 88 89 90 91 92 92 91 89 86 83 80 77 74 71 68 65 62 60 59 59 59 57 55 52 50 49 48 47 47 46 45 45 44 44 45 45 46 48 49 50 51 53 54 56 58 60 63 66 69 72 75 78 81 84 86 88 90 93 95 99 105 111 117 123 128 132 136 139 142 145 147 149 152
79 79 79 79 80 80 81 81 82 83 84 86 87 89 91 91 92 91 90 88 85 82 79 76 74 71 68 65 62 59 57 56 56 56 55 53 50 48 47 46 46 46 45 44 43 43 43 43 44 45 47 48 49 50 52 54 55 58 60 63 66 69 72 75 78 81 83 86 88 90 92 95 100 106 112 119 124 129 133 136 139 142 144 146 148 150
79 79 79 79 79 80 81 81 83 84 85 86 87 89 91 91 92 91 89 86 82 79 76 73 71 68 66 63 60 57 55 54 54 54 53 51 48 46 45 45 45 44 43 42 42 41 42 42 43 44 46 47 48 50 51 53 55 57 60 63 66 69 72 75 78 81 83 85 87 89 92 96 101 107 114 120 125 130 134 137 139 141 143 145 148 150
79 79 79 79 79 80 81 82 83 84 85 86 88 89 90 91 91 90 87 84 80 77 73 71 68 65 63 61 59 56 53 52 51 51 51 49 47 45 44 43 43 43 42 41 40 40 40 41 42 43 45 46 47 49 51 53 55 57 60 63 66 69 72 75 78 80 82 84 86 89 92 97 103 109 114 120 125 129 133 136 139 141 143 146 147 150
78 78 78 78 79 80 81 82 83 84 85 86 87 89 91 91 91 89 86 83 79 75 72 69 66 63 60 58 56 54 52 50 49 49 49 47 45 43 42 42 42 41 40 39 39 39 39 40 41 42 44 45 47 48 50 52 54 57 60 63 66 69 72 75 77 79 82 84 86 89 93 99 104 109 114 119 124 128 132 135 139 141 144 146 148 150
78 78 78 78 79 80 81 82 83 84 85 86 87 89 90 90 90 88 85 81 77 74 70 67 65 62 59 56 54 52 50 48 47 47 46 45 43 42 41 41 40 39 38 37 37 38 38 39 40 41 43 44 46 48 50 52 54 57 60 63 66 69 72 74 77 79 81 83 86 90 95 100 105 109 113 118 123 127 131 135 139 142 144 146 148 150
78 78 78 79 79 80 81 82 83 84 85 86 87 88 89 89 88 87 83 79 76 73 69 66 63 60 58 54 51 49 48 46 45 44 44 43 42 40 40 39 39 38 37 36 36 36 37 38 39 40 42 43 45 47 49 52 54 57 60 63 66 69 71 74 76 78 80 83 87 91 95 100 104 108 113 117 122 127 132 136 140 143 145 147 149 151
78 78 78 79 79 80 81 82 83 84 85 86 87 88 89 89 88 85 82 78 75 72 69 65 62 59 55 52 49 47 45 44 43 42 42 41 40 39 38 38 37 36 35 35 35 35 36 37 38 39 41 42 44 47 49 51 54 57 60 63 66 68 71 73 75 78 80 83 87 91 96 100 104 108 112 117 122 127 133 137 141 143 145 147 149 151
78 78 78 79 80 80 81 82 83 84 85 86 87 88 89 88 87 84 81 77 74 70 67 64 61 57 53 50 47 44 43 41 40 40 39 39 38 37 36 36 35 35 34 34 34 34 34 35 36 38 40 42 44 46 49 51 54 57 60 63 66 68 71 73 75 77 80 84 88 92 96 101 104 108 112 117 122 128 134 138 142 143 145 147 148 151
78 78 78 79 80 81 82 83 83 84 85 86 87 88 88 87 85 82 79 75 72 68 65 62 59 55 51 48 45 43 41 39 38 37 37 36 36 35 35 34 34 33 33 33 33 33 33 34 35 37 39 41 43 46 48 51 54 57 60 63 65 68 70 72 75 77 80 84 88 92 97 100 104 107 112 117 123 129 135 139 142 143 145 146 148 151
78 78 78 79 80 81 82 83 84 85 86 87 88 88 88 87 84 81 77 73 70 67 64 61 57 54 51 48 45 42 40 39 37 36 35 34 34 33 33 33 33 32 32 32 32 32 32 33 34 36 38 40 43 46 48 51 54 57 60 63 65 67 70 72 75 77 80 84 88 93 97 100 104 107 111 117 123 130 136 139 141 143 144 146 149 152
78 78 79 79 80 81 83 84 84 85 86 87 87 87 86 85 82 79 75 72 68 65 62 60 57 54 51 48 45 42 40 38 36 35 33 33 32 32 32 32 31 31 31 31 31 31 31 32 34 35 38 40 43 45 48 51 54 57 60 62 65 67 69 72 74 77 81 84 89 93 97 100 103 107 111 117 124 131 136 140 142 143 145 147 150 153
78 78 79 80 81 82 83 84 85 85 86 86 86 85 84 82 80 77 73 70 67 64 61 58 56 53 51 48 45 43 40 38 35 34 32 31 31 30 30 30 30 30 30 30 29 29 30 31 33 35 37 40 42 45 48 51 54 56 59 62 64 67 69 72 74 77 81 85 89 93 96 99 103 106 111 118 125 132 137 140 142 144 146 148 151 154
78 79 79 80 81 82 83 84 85 85 86 86 85 85 83 81 78 75 71 68 65 62 60 57 55 53 50 47 45 42 39 37 35 33 31 30 29 29 29 29 29 29 29 28 28 28 29 31 32 35 37 40 42 45 48 51 54 56 59 62 64 67 69 72 74 78 81 85 89 93 96 99 102 106 111 118 126 132 137 140 142 144 146 149 151 154
78 79 79 80 81 82 83 84 85 85 86 86 85 84 83 80 77 74 70 67 64 61 58 56 53 51 48 46 44 41 38 36 34 32 30 29 28 28 28 28 28 28 28 27 27 27 28 30 32 34 37 40 42 45 48 51 54 56 59 62 64 66 69 71 74 77 81 85 89 92 96 99 102 106 112 119 126 133 137 140 142 144 146 149 151 153
79 79 80 81 82 83 84 85 85 86 86 86 86 84 82 79 76 73 69 66 63 60 57 54 51 49 46 44 42 39 37 35 33 31 29 28 28 27 27 27 27 27 26 26 26 27 28 30 32 34 37 40 42 45 48 51 54 56 59 62 64 66 69 71 74 77 81 84 88 92 95 98 102 106 112 119 126 133 137 139 141 144 146 148 150 151
79 79 80 81 82 83 84 85 86 86 87 86 85 84 81 78 75 72 69 65 61 58 55 52 50 47 45 43 40 38 35 33 31 30 28 27 27 26 26 26 26 26 25 25 25 26 27 29 32 34 37 40 43 46 48 51 54 56 59 61 64 66 69 71 74 77 81 84 88 92 95 98 102 106 112 119 126 132 136 139 141 143 145 147 148 149
79 79 80 81 82 83 84 85 86 86 86 86 85 83 80 77 74 71 68 64 61 58 54 51 48 46 44 42 39 37 34 32 30 29 27 26 26 25 25 25 25 25 24 24 25 26 27 29 31 34 37 40 43 46 48 51 54 56 59 61 64 66 69 71 74 77 80 84 88 91 95 98 102 106 112 119 125 131 135 138 140 142 143 145 146 147
78 79 80 81 82 83 84 85 85 86 86 86 84 82 79 75 73 70 67 63 60 57 54 51 48 45 43 41 38 35 33 31 29 28 26 25 25 24 24 24 24 24 23 23 24 25 27 29 31 34 37 40 43 46 49 51 54 56 59 61 64 66 69 71 74 77 80 84 88 91 95 98 102 106 112 118 125 130 134 136 138 140 142 144 145 146
78 79 80 81 81 82 83 84 85 85 85 85 83 80 77 74 71 68 66 63 60 57 54 51 48 45 42 40 38 35 32 30 28 27 25 25 24 23 23 23 23 23 23 23 24 25 27 29 31 34 37 40 43 46 49 51 54 56 59 61 64 66 69 71 74 77 81 84 87 91 95 98 102 107 112 118 124 129 133 135 137 139 141 143 145 147
78 78 79 80 81 82 83 84 84 85 85 84 82 79 76 73 70 67 65 62 59 56 53 50 47 45 42 39 37 35 32 30 27 26 25 24 23 23 22 22 22 22 22 23 23 25 27 29 31 34 37 40 43 46 49 51 54 56 59 62 64 67 69 72 75 78 81 84 88 91 95 99 103 107 112 118 123 128 132 134 136 138 141 143 146 149
77 78 79 80 80 81 82 83 84 84 84 83 81 78 74 71 68 66 63 61 58 56 53 50 47 44 41 39 36 34 31 29 27 25 24 23 22 22 21 21 21 21 22 22 23 25 27 29 31 34 37 40 43 46 49 51 54 56 59 62 64 67 69 72 75 78 81 85 88 92 96 99 103 107 112 117 122 127 130 133 135 137 140 143 146 150
77 78 78 79 80 81 82 83 84 84 84 82 80 77 73 70 67 65 62 60 57 55 52 49 46 44 41 38 35 33 30 29 26 25 23 22 21 21 20 20 20 21 21 22 23 25 27 29 31 34 37 40 43 46 49 51 54 56 59 62 64 67 69 72 75 78 81 84 88 92 96 100 103 107 111 116 121 125 128 131 133 135 139 142 146 151
77 78 78 79 80 81 82 83 83 84 83 81 79 75 72 69 66 63 61 59 57 54 51 48 46 43 40 38 35 32 30 28 26 24 22 21 20 20 20 20 20 20 21 22 23 25 27 29 31 34 37 40 43 46 49 51 54 56 59 62 64 67 69 72 74 77 81 84 88 92 96 99 103 106 110 114 119 123 126 128 131 133 137 141 145 150
77 77 78 79 79 80 82 82 83 83 83 81 78 74 70 67 64 62 60 58 55 53 50 47 45 42 40 37 34 32 29 27 25 23 22 21 20 19 19 19 19 20 21 22 23 25 27 29 31 34 37 40 43 46 49 51 53 56 59 61 64 67 69 71 74 77 80 83 87 91 95 99 102 104 108 112 116 120 123 126 129 132 136 140 145 149
76 77 78 78 79 80 81 82 83 83 82 80 77 73 69 66 63 61 58 56 54 51 49 46 43 41 38 36 34 31 29 26 24 23 21 20 19 18 18 18 19 20 21 22 23 25 27 29 31 34 37 40 43 46 48 51 53 56 58 61 64 67 69 71 73 76 79 82 86 90 94 98 100 103 106 110 114 118 122 125 128 131 135 140 144 149
76 77 77 78 78 79 81 82 82 82 81 79 76 72 68 65 62 59 57 55 53 50 48 45 43 40 37 35 32 30 28 26 24 22 21 19 18 18 18 18 18 19 20 22 23 25 27 29 31 34 37 40 43 46 48 51 53 55 58 60 63 66 69 71 73 75 78 82 86 90 94 97 99 102 105 108 112 116 121 124 128 132 136 141 145 149
76 76 77 77 78 79 80 81 82 81 80 78 75 71 67 63 60 58 56 54 51 49 47 44 42 39 37 34 32 29 27 25 23 21 20 19 18 17 17 17 18 19 20 22 23 25 27 29 32 34 37 39 43 45 48 50 52 55 57 60 63 66 68 70 73 75 78 82 86 90 93 96 99 101 103 107 111 116 120 125 129 133 138 142 147 150
75 76 76 77 78 79 80 81 81 81 79 76 73 69 65 62 59 57 54 52 50 48 46 43 41 39 36 34 31 29 27 25 23 21 19 18 17 17 17 17 17 18 20 21 23 25 27 29 32 34 37 39 42 45 48 50 52 54 57 59 62 65 68 70 73 75 78 82 86 89 93 96 98 101 103 106 111 116 120 125 130 135 140 144 148 152
75 76 76 77 77 78 79 80 80 79 78 75 72 68 65 61 58 56 53 51 49 47 45 42 40 38 35 33 30 28 26 24 22 20 19 18 17 16 16 17 17 18 19 21 23 25 27 29 32 34 37 39 42 45 47 50 52 54 56 59 62 65 68 70 73 75 78 82 86 89 93 96 98 100 103 106 111 116 121 126 131 136 141 146 150 153
74 75 76 76 77 78 79 79 79 79 77 74 71 67 64 61 58 55 53 50 48 46 44 42 39 37 34 32 30 28 26 24 22 20 18 17 16 16 16 16 17 18 19 21 23 25 27 29 31 34 37 39 42 45 47 49 52 54 56 59 62 64 67 70 72 75 78 82 86 89 92 95 98 100 103 106 111 116 121 127 132 137 142 146 150 154
74 75 75 76 76 77 78 79 79 78 76 73 70 67 63 60 57 54 52 50 47 45 43 41 38 36 34 31 29 27 25 23 21 20 18 17 16 15 15 16 17 18 19 21 22 24 26 29 31 34 37 39 42 45 47 49 51 54 56 59 61 65 67 70 73 76 79 82 86 89 93 95 98 100 103 106 111 117 123 128 133 138 143 147 151 155
73 74 75 75 76 77 78 78 78 77 75 73 70 66 62 59 56 54 51 49 46 44 42 40 37 35 33 31 29 27 24 23 21 19 18 16 15 15 15 16 16 18 19 20 22 24 26 29 31 34 36 39 42 44 47 49 51 54 56 59 62 65 67 70 73 76 79 82 86 89 93 96 98 101 103 107 112 118 124 130 135 140 144 148 152 155
73 74 74 75 76 77 78 78 78 77 75 72 69 65 62 58 55 53 51 48 46 43 41 39 37 34 32 30 28 26 24 22 21 19 17 16 15 15 15 15 16 18 19 20 22 24 26 28 31 33 36 39 42 44 47 49 52 54 56 59 62 64 67 70 73 76 79 83 86 90 93 96 99 101 105 109 114 120 126 132 137 141 145 149 153 156
72 73 74 75 76 77 77 78 77 76 74 71 68 64 61 58 55 52 50 48 46 43 40 38 36 34 31 29 27 25 23 22 20 19 17 16 15 14 15 15 16 18 19 20 22 24 26 28 31 33 36 39 42 44 47 49 52 54 57 59 62 64 67 70 73 76 79 83 86 90 93 96 99 102 106 110 116 121 128 133 139 143 147 150 154 157
72 73 74 75 75 76 77 77 76 75 73 70 67 64 60 57 54 52 49 47 45 43 40 37 35 33 31 28 26 25 23 21 20 18 17 16 15 14 15 15 16 18 19 20 22 24 26 28 30 33 36 39 41 44 47 50 52 55 57 60 62 65 67 70 73 77 80 83 86 89 93 96 100 104 107 112 117 123 129 135 140 145 148 152 155 157
71 72 73 74 75 76 76 76 75 74 72 69 66 63 59 56 54 51 49 47 44 42 40 37 34 32 30 28 26 24 22 21 19 18 17 16 15 14 14 15 16 18 19 20 22 24 26 28 30 33 36 38 41 44 47 50 53 55 58 60 63 65 68 70 73 77 80 83 86 90 93 97 100 104 109 114 119 125 132 137 142 146 150 153 156 158
70 71 72 74 75 76 76 75 74 73 71 68 65 62 58 55 53 51 48 46 44 42 39 37 34 31 29 27 25 23 22 20 19 18 16 15 14 14 14 15 16 18 19 20 22 24 26 28 30 33 36 38 41 45 47 50 53 55 58 61 63 66 68 71 73 77 80 83 87 90 93 97 101 105 110 115 122 128 134 140 144 148 151 154 156 159
69 70 72 73 74 75 75 75 73 72 70 67 64 61 58 55 52 49 47 45 43 41 39 36 34 31 29 26 24 23 21 20 18 17 16 15 14 14 14 15 16 18 19 21 22 24 26 28 30 33 36 38 41 44 47 50 53 56 58 61 64 66 69 71 74 77 80 84 87 91 94 97 102 106 111 117 124 130 136 142 146 150 152 155 157 159
69 70 71 73 74 75 75 74 73 71 68 66 63 60 57 54 51 49 46 44 42 40 38 36 33 31 28 26 24 22 20 19 18 17 16 15 14 14 15 15 17 18 19 21 22 24 26 28 30 33 35 38 41 44 47 50 53 56 59 61 64 67 69 72 74 77 80 84 87 91 95 98 103 107 113 119 125 132 138 144 148 151 154 156 158 160
Wind_Direction
304 304 304 303 303 303 302 302 302 303 304 305 305 306 306 306 306 306 307 307 308 308 308 308 308 307 307 306 305 303 302 300 298 296 294 291 288 284 281 277 274 271 268 266 264 263 262 261 259 257 254 251 249 246 243 241 238 236 233 231 228 226 224 222 221 219 218 216 215 214 212 211 210 208 208 207 206 205 204 202 201 201 201 201 200 200
304 304 304 303 303 302 302 303 303 304 305 306 306 307 307 307 307 307 308 308 309 309 309 309 308 308 307 306 305 304 302 300 299 297 294 292 288 284 280 276 273 270 268 266 264 262 261 260 258 256 253 250 248 245 242 240 237 235 232 230 227 225 223 221 219 218 217 215 214 213 211 210 209 208 207 206 205 204 202 201 200 200 200 200 199 199
304 304 303 303 303 303 303 304 305 306 307 307 307 307 307 308 308 308 309 309 310 310 310 309 309 309 308 307 306 304 303 301 299 298 295 293 289 285 280 275 272 269 267 265 263 262 260 259 257 255 252 250 247 244 241 239 236 233 231 228 226 224 222 220 218 217 215 214 213 212 211 210 209 207 206 205 204 203 201 200 200 199 199 199 199 198
304 303 303 303 303 304 305 306 306 307 307 308 308 308 308 309 309 310 310 311 311 311 310 310 310 309 308 307 306 305 303 302 301 299 296 294 290 286 281 276 272 269 266 264 263 261 260 258 256 254 251 249 246 243 240 238 235 232 230 227 225 223 221 219 217 215 214 213 212 211 210 209 208 207 206 204 203 202 200 199 199 199 199 198 198 198
303 303 303 304 304 305 306 307 308 308 308 308 309 309 309 310 310 311 311 311 311 311 311 311 311 310 309 308 306 305 304 303 302 300 298 295 291 287 282 277 273 269 266 264 262 261 259 257 255 253 250 247 245 242 239 236 234 231 228 226 223 221 219 218 216 214 213 212 211 210 209 208 207 206 205 203 202 200 199 199 198 198 198 198 198 197
303 304 304 305 306 307 308 308 308 308 309 309 309 310 310 311 311 312 312 312 312 312 312 312 311 311 309 308 307 306 305 304 302 301 298 296 292 289 284 279 274 270 267 264 262 260 258 256 254 251 249 246 244 241 238 235 232 230 227 225 222 220 218 216 215 213 212 211 210 210 209 208 206 205 204 202 201 200 199 198 198 197 197 197 197 197
304 305 306 307 308 308 309 309 309 309 310 310 310 311 311 312 312 312 313 313 313 313 313 312 312 311 310 308 307 306 305 304 303 301 299 296 294 290 286 281 276 271 267 264 262 260 258 256 253 250 248 245 242 240 237 234 231 228 226 223 221 219 217 215 213 212 211 211 210 209 208 207 205 204 203 201 200 199 198 197 197 197 197 197 197 196
306 307 308 309 309 309 310 310 310 310 310 311 311 311 312 312 313 313 314 314 313 313 313 312 312 310 309 308 307 306 305 304 302 300 298 296 294 292 288 284 278 273 268 265 262 260 258 255 252 249 246 244 241 238 235 233 230 227 224 222 220 218 216 214 213 212 211 210 209 208 207 206 204 203 202 200 199 198 198 197 197 196 196 196 196 196
308 309 309 310 310 310 311 311 311 311 311 311 312 312 312 313 313 314 314 314 314 313 313 312 311 310 308 307 306 305 304 303 301 299 297 295 293 292 289 285 280 274 269 265 262 260 257 254 251 248 245 242 240 237 234 231 229 226 223 221 219 217 215 213 212 212 211 209 208 207 206 205 204 202 201 200 199 198 197 196 196 196 196 196 196 195
310 310 310 311 311 311 311 311 311 311 311 312 312 312 313 314 314 314 314 314 314 313 313 312 310 309 307 306 305 304 303 301 299 297 295 293 292 291 288 285 280 275 270 265 262 259 256 253 250 247 244 241 239 236 233 230 227 225 222 220 217 216 214 213 212 211 210 209 208 207 205 204 203 201 200 199 198 197 197 196 196 195 195 195 195 195
311 311 311 311 311 311 311 311 311 311 311 312 312 313 313 314 315 315 315 314 314 313 312 311 310 308 307 306 304 303 302 300 298 295 293 292 291 289 287 284 279 274 270 265 262 259 256 252 249 246 243 240 237 234 232 229 226 223 221 219 217 215 213 212 211 211 210 209 207 206 205 203 202 200 199 198 198 197 196 196 196 195 195 195 195 195
312 312 312 312 312 312 311 311 311 312 312 313 313 314 315 315 315 315 315 314 314 313 313 311 310 309 307 306 305 303 301 299 297 294 292 291 289 288 285 282 278 273 269 265 262 258 255 251 248 244 242 239 236 233 230 228 225 222 220 218 216 214 213 212 211 210 209 208 207 205 204 202 201 199 199 198 197 196 196 196 195 195 195 195 195 195
313 312 312 312 312 312 312 312 312 312 313 314 315 316 316 316 316 316 315 315 315 314 313 312 310 309 308 306 305 303 301 299 296 294 292 290 288 286 284 280 276 272 268 265 261 257 254 250 247 243 241 238 235 232 229 226 224 221 219 217 215 213 212 211 210 209 208 207 206 204 203 201 200 199 198 197 197 196 196 195 195 195 195 195 194 194
313 313 313 313 313 312 312 313 313 314 314 315 316 317 317 317 317 317 316 316 315 315 314 312 311 310 309 307 305 303 301 299 296 294 292 290 288 286 282 279 275 271 268 264 260 256 253 249 245 242 239 236 234 231 228 225 223 220 218 216 214 212 211 210 209 208 208 206 205 203 202 200 199 199 198 197 197 196 195 195 195 194 194 194 194 194
314 314 314 313 313 313 313 314 314 315 316 317 318 318 318 318 318 317 317 317 316 315 314 313 312 311 310 308 306 304 301 299 296 293 291 290 288 285 282 278 274 270 267 263 259 255 251 248 244 241 238 235 232 230 227 224 222 219 217 215 213 212 211 210 209 208 207 205 204 202 200 199 199 199 198 197 197 196 195 194 194 194 194 194 194 193
315 315 314 314 314 314 314 315 316 316 317 318 319 319 320 319 319 319 318 318 317 316 315 314 313 311 310 308 307 304 302 299 296 293 291 289 287 284 281 277 273 270 266 262 258 254 250 246 243 240 237 234 231 228 226 223 220 218 216 214 212 211 210 209 208 207 206 204 203 201 200 199 199 199 198 197 197 196 195 194 194 193 193 193 193 193
315 315 315 315 315 315 316 316 317 317 318 319 320 320 321 321 320 320 319 318 318 317 316 315 314 313 311 309 306 304 302 299 295 293 290 288 286 283 280 276 272 269 265 261 257 253 248 245 241 238 235 232 230 227 224 222 219 217 215 213 212 210 209 208 207 206 205 203 202 200 199 199 199 199 198 197 196 195 194 194 193 193 193 193 193 192
316 316 316 316 316 316 316 317 318 319 320 321 321 322 322 322 321 320 320 319 318 318 317 316 315 313 312 309 307 304 301 299 295 292 290 287 285 282 279 275 272 268 264 260 255 251 247 243 240 236 234 231 228 226 223 221 218 216 214 213 211 210 209 207 206 205 204 202 201 200 199 199 199 198 198 197 196 195 194 193 193 193 193 193 192 192
317 317 317 317 317 317 317 318 319 320 321 322 323 323 323 323 322 321 321 320 319 318 317 316 315 314 312 310 307 304 302 299 296 292 289 287 284 281 278 274 271 267 263 258 254 249 245 241 238 235 232 229 227 224 222 220 217 215 214 212 211 209 208 207 205 204 202 201 200 200 199 199 199 198 197 196 195 194 193 193 193 193 193 192 192 192
318 318 318 317 318 318 318 319 320 321 322 323 324 325 324 324 323 322 321 320 320 319 318 316 315 314 312 310 308 305 302 299 296 292 289 286 283 280 277 274 270 266 262 257 252 248 243 239 236 233 230 228 225 223 221 219 217 215 213 211 210 209 207 206 204 203 202 201 200 199 199 199 198 198 197 196 195 194 193 193 193 193 193 192 191 191
319 318 318 318 318 319 319 320 322 323 324 325 326 326 325 324 323 322 321 321 320 319 318 317 316 314 313 311 309 307 304 300 297 293 289 286 283 280 276 273 269 265 260 256 251 246 241 237 234 231 228 226 224 222 220 218 216 214 212 211 209 208 207 205 203 202 201 200 199 199 199 199 198 197 196 195 194 193 193 193 193 193 192 192 191 191
319 319 319 319 319 320 321 322 323 324 325 326 327 327 326 325 324 323 322 321 320 319 319 318 317 316 315 314 312 309 306 302 299 294 290 286 283 280 276 272 268 264 259 255 249 244 239 235 232 229 226 224 222 220 219 217 215 213 212 210 209 207 206 204 203 201 200 199 199 199 199 199 198 197 196 195 194 193 193 193 193 193 192 191 191 190
320 320 320 320 321 321 322 323 324 326 326 327 327 327 326 325 324 323 322 322 321 321 320 320 319 318 317 315 313 311 308 304 300 296 292 288 284 280 276 272 268 263 258 253 248 242 238 233 230 227 224 222 221 219 217 216 214 213 211 210 208 207 205 203 202 200 199 199 199 199 199 199 198 197 196 195 194 193 193 193 193 192 192 191 190 190
321 321 321 321 322 323 323 324 325 326 327 327 327 327 326 325 324 323 323 322 322 322 321 321 320 319 317 316 314 312 309 305 302 298 293 289 285 280 276 271 267 262 257 252 246 241 235 231 227 224 222 221 219 217 216 215 213 212 210 209 207 206 204 203 201 200 199 198 198 199 199 198 198 197 195 194 193 193 193 193 193 192 191 191 190 190
321 321 322 322 323 323 324 325 326 327 327 328 328 328 327 326 325 324 324 323 323 322 322 321 321 319 318 316 314 312 309 306 302 299 295 290 285 280 276 271 266 261 256 251 245 239 234 229 225 223 220 219 217 216 215 213 212 211 210 208 207 205 204 202 201 199 198 198 198 198 198 198 197 196 195 194 194 193 193 193 193 192 191 191 190 190
322 322 322 323 323 324 325 326 327 328 328 329 329 329 328 327 326 325 324 324 323 323 322 322 321 320 318 316 314 311 309 306 303 299 295 290 286 280 275 270 266 260 255 250 243 237 231 227 223 221 219 217 216 215 213 212 211 210 209 207 206 204 203 202 200 199 198 198 198 198 198 198 197 196 195 194 194 194 194 193 193 192 191 191 190 190
322 323 323 323 324 325 326 327 328 329 329 330 330 329 328 327 326 325 324 324 324 323 323 322 321 320 318 316 313 311 309 306 303 299 295 291 285 280 275 270 265 260 254 248 241 235 229 225 221 219 217 216 214 213 212 211 210 209 208 206 205 204 202 201 200 199 197 197 197 198 198 198 197 196 195 194 194 194 194 193 193 192 191 191 190 190
323 323 323 324 325 325 326 328 329 329 330 330 330 330 329 328 327 325 325 324 324 324 323 323 322 320 319 316 314 312 309 306 303 299 295 290 285 280 275 270 264 259 253 246 239 233 227 223 219 217 215 214 213 212 211 210 209 208 207 206 204 203 202 201 199 198 197 197 197 197 198 197 197 196 195 195 194 194 194 194 193 192 191 191 190 189
323 323 324 324 325 326 327 328 329 330 330 331 330 330 329 328 327 326 325 325 325 324 324 324 323 321 320 318 315 313 310 307 304 299 295 290 285 279 274 269 263 258 251 244 237 231 225 221 218 215 214 213 212 211 210 208 208 207 206 205 204 202 201 200 199 198 197 196 196 197 197 197 196 196 195 195 195 194 194 194 193 192 191 190 189 188
323 324 324 325 325 326 328 329 330 330 331 331 331 330 329 328 327 326 326 325 325 325 325 325 324 323 321 319 316 313 311 308 304 300 295 290 284 279 274 268 262 256 249 242 235 229 223 219 216 214 213 212 211 210 209 207 206 206 205 204 203 202 200 199 198 197 196 196 196 196 197 197 196 196 195 195 195 195 195 194 193 192 191 190 188 187
323 324 324 325 326 327 328 329 330 331 331 331 331 330 330 329 328 327 326 326 326 326 326 326 325 323 322 320 317 314 312 308 304 300 295 290 284 279 273 267 261 254 247 240 233 226 221 217 215 213 212 211 210 209 208 206 205 204 204 203 202 201 200 198 198 197 196 195 195 195 196 196 196 196 195 195 195 195 195 194 193 192 190 189 187 186
323 324 324 325 326 327 328 330 330 331 331 332 331 331 330 329 328 327 327 327 327 327 326 326 325 324 322 320 318 315 313 309 305 300 295 290 284 278 272 266 259 252 245 238 231 224 219 216 213 212 211 210 210 209 207 205 204 203 203 202 201 200 199 198 197 196 195 195 194 195 195 196 196 196 195 195 195 195 194 194 193 192 190 188 187 185
323 324 324 325 326 328 329 330 331 332 332 332 331 331 330 329 328 328 327 327 327 327 327 326 325 324 322 320 318 316 313 309 305 300 295 290 284 277 271 264 257 250 243 235 229 223 218 214 212 210 209 209 209 208 206 205 203 202 201 201 201 200 199 198 197 196 195 194 194 194 195 195 196 195 195 195 195 195 194 194 193 191 190 188 186 185
323 324 325 326 327 328 329 330 331 332 332 332 332 331 330 330 329 328 328 327 327 327 327 327 326 325 323 321 318 316 313 309 305 300 295 289 283 276 269 263 256 248 241 233 227 221 216 213 210 209 208 208 208 207 206 204 203 201 200 200 200 199 199 198 196 196 195 194 193 193 194 195 195 195 195 195 195 195 194 194 192 191 189 188 186 185
323 324 325 326 327 329 330 331 332 332 332 332 332 331 331 330 329 329 328 328 327 327 327 327 326 325 323 321 319 316 313 309 305 300 294 289 282 275 268 261 254 246 239 232 225 219 215 211 209 208 207 207 207 207 206 204 202 201 199 199 199 199 198 197 196 195 194 193 193 193 194 195 195 195 195 195 195 195 194 193 192 191 189 188 187 186
323 324 325 326 328 329 330 331 332 333 333 333 332 332 331 330 330 329 328 328 327 327 327 327 326 325 323 321 319 316 313 309 305 300 294 288 281 274 267 259 252 245 237 230 224 218 214 210 208 206 206 206 206 206 205 204 202 200 199 198 198 198 198 197 196 195 194 193 193 193 193 194 195 195 195 195 194 194 194 193 191 190 188 187 186 186
323 324 325 327 328 329 331 332 332 333 333 333 332 332 331 331 330 329 328 328 328 327 327 327 326 325 323 321 319 316 313 309 304 299 293 287 280 272 265 257 250 243 236 229 223 217 213 209 207 205 205 205 205 205 205 203 202 200 198 197 197 197 197 197 196 195 194 193 192 192 193 194 195 195 195 194 194 194 193 192 190 189 188 187 186 186
323 324 325 327 328 330 331 332 333 333 333 333 333 332 332 331 330 330 329 328 328 328 327 327 326 325 323 321 319 316 312 308 304 299 293 286 279 271 263 255 248 241 235 229 223 217 212 209 206 205 204 204 204 204 204 203 201 200 198 197 196 196 196 196 195 194 193 192 192 192 192 193 194 195 194 194 193 193 192 191 189 188 187 186 186 186
323 324 325 327 329 330 331 332 333 333 333 333 333 332 332 331 330 330 329 329 328 328 328 327 326 325 323 321 319 316 312 308 303 298 292 286 278 270 261 252 245 239 234 228 223 217 212 208 205 203 202 203 203 203 203 202 201 199 198 196 196 195 195 195 194 193 192 192 191 191 192 193 193 194 194 193 193 192 191 190 188 187 186 185 185 185
324 324 326 327 329 331 332 332 333 333 333 333 333 332 332 331 331 330 330 329 329 329 328 328 327 325 323 321 319 316 312 308 303 298 292 285 277 269 259 250 243 236 232 227 223 218 213 208 205 203 202 201 202 202 202 201 200 199 197 196 195 195 195 194 193 192 191 191 191 191 191 192 192 193 193 192 192 191 190 189 187 186 185 185 185 185
324 324 326 328 329 331 332 333 333 333 333 333 333 332 332 332 331 331 330 330 329 329 328 328 327 325 323 321 318 315 312 307 302 297 291 284 276 267 257 248 240 234 230 226 222 218 213 209 205 202 201 200 200 201 201 200 199 198 197 195 195 194 194 193 192 191 191 190 190 190 190 191 191 192 192 191 191 190 189 188 187 186 185 185 184 184
324 325 326 328 330 331 332 333 333 333 333 333 333 333 333 332 332 331 331 330 330 329 329 328 327 325 323 321 318 315 311 307 302 296 290 283 274 265 256 246 238 232 228 224 221 218 214 209 205 202 200 199 199 199 200 199 198 197 196 195 194 194 193 193 192 191 190 190 190 190 190 190 190 190 190 190 189 189 188 187 186 185 185 185 184 184
324 325 326 328 330 331 332 333 333 333 334 334 334 333 333 332 332 332 331 331 330 330 329 328 327 325 324 321 318 315 311 307 301 295 289 281 273 264 254 244 236 231 226 223 220 217 214 210 206 203 200 199 198 198 198 198 197 196 195 194 194 193 193 192 191 190 190 189 189 189 189 189 189 189 189 189 188 188 187 187 186 185 185 184 184 184
324 325 327 328 330 331 332 333 333 334 334 334 334 333 333 332 332 332 331 331 330 330 329 328 327 325 323 321 318 315 311 306 301 295 288 280 271 261 251 242 234 228 224 221 219 217 213 210 206 203 200 198 197 197 197 196 196 195 194 194 193 193 192 191 190 190 189 189 189 189 188 188 188 188 188 187 187 187 186 186 185 185 185 184 184 184
324 325 327 329 330 332 332 333 333 334 334 334 334 333 333 333 332 332 332 331 330 330 329 328 327 325 323 321 318 314 310 306 300 294 287 279 270 260 249 240 232 226 222 220 218 216 213 210 206 203 200 198 197 196 195 195 195 194 194 193 193 193 192 191 190 189 189 188 188 188 188 187 187 186 186 186 186 186 185 185 185 184 184 184 184 185
324 325 327 329 330 332 332 333 333 334 334 334 334 333 333 333 332 332 332 331 331 330 329 329 327 326 323 321 317 314 310 305 300 293 286 278 268 258 248 239 231 225 221 218 216 214 212 210 206 203 200 198 196 195 194 194 194 193 193 193 193 192 191 190 189 189 188 188 188 188 187 187 186 185 185 185 185 185 185 184 184 184 184 184 184 185
324 325 327 329 330 331 332 333 333 334 334 334 334 333 333 333 332 332 332 331 331 330 329 328 327 325 323 320 317 313 309 304 299 292 285 276 267 256 246 237 230 223 219 216 215 213 212 209 206 203 200 198 196 194 194 193 193 192 192 192 192 192 191 190 189 188 188 188 187 187 187 186 185 185 184 184 184 184 184 184 184 184 184 184 184 185
324 326 327 329 330 331 332 333 333 334 334 334 333 333 333 332 332 332 332 331 330 330 329 328 327 325 323 320 317 313 308 304 298 291 283 275 265 254 245 236 228 222 218 215 213 212 210 208 206 203 200 197 195 194 193 192 192 191 191 191 191 191 191 190 189 188 187 187 187 187 186 186 185 184 183 183 183 183 183 183 183 184 184 184 184 185
324 326 327 329 330 331 332 332 333 334 334 334 333 333 332 332 332 332 332 331 330 330 329 328 327 325 323 320 316 312 307 302 297 290 282 273 263 253 243 234 227 221 217 214 212 211 209 208 205 203 200 197 195 194 192 192 191 190 190 190 190 190 190 190 189 188 187 186 186 186 186 185 184 183 182 182 182 182 182 182 183 183 184 184 184 185
325 326 328 329 330 331 332 332 333 334 334 334 333 332 332 332 332 332 331 331 330 329 328 328 327 325 323 320 316 311 307 301 295 289 281 272 262 251 240 232 225 220 216 213 211 210 209 207 205 202 200 197 195 193 192 191 190 190 189 189 189 190 190 189 188 187 187 186 186 186 185 185 184 183 182 181 181 181 182 182 182 183 184 184 185 185
325 326 328 329 330 331 331 332 333 333 334 333 333 332 332 332 331 331 331 330 330 329 328 327 326 324 322 319 315 310 306 300 294 288 279 271 260 250 239 230 224 219 215 212 210 209 208 206 204 202 200 197 195 193 192 191 190 189 189 189 189 189 189 189 188 187 186 186 185 185 185 184 184 183 182 181 181 181 181 182 182 183 183 184 184 185
Height
10225 10221 10217 10212 10208 10203 10198 10194 10189 10184 10179 10174 10170 10164 10159 10154 10149 10143 10138 10132 10126 10120 10114 10107 10101 10095 10089 10084 10079 10074 10069 10065 10062 10060 10057 10055 10054 10052 10050 10047 10044 10041 10039 10037 10036 10035 10035 10035 10037 10039 10039 10040 10042 10044 10047 10049 10052 10054 10058 10061 10065 10069 10074 10079 10083 10089 10094 10101 10108 10115 10122 10128 10135 10144 10152 10162 10174 10186 10199 10215 10227 10238 10248 10263 10279 10295
10218 10214 10210 10206 10202 10197 10191 10186 10182 10178 10172 10167 10162 10157 10152 10147 10141 10135 10130 10124 10118 10112 10105 10099 10093 10087 10080 10075 10070 10065 10061 10057 10054 10051 10049 10047 10045 10044 10042 10040 10037 10035 10032 10030 10029 10028 10028 10029 10031 10032 10033 10035 10036 10038 10040 10042 10045 10048 10052 10055 10059 10063 10067 10072 10077 10082 10089 10095 10102 10109 10114 10120 10127 10136 10146 10157 10169 10183 10198 10212 10222 10231 10243 10255 10269 10282
10212 10207 10204 10200 10195 10191 10185 10179 10174 10170 10165 10160 10155 10150 10145 10139 10134 10128 10122 10116 10110 10103 10097 10090 10084 10078 10072 10067 10062 10057 10053 10049 10046 10043 10040 10039 10037 10036 10035 10033 10030 10028 10025 10024 10022 10022 10022 10024 10025 10027 10028 10030 10031 10032 10033 10035 10038 10042 10045 10049 10053 10057 10062 10067 10072 10077 10084 10090 10095 10100 10107 10114 10122 10131 10141 10153 10165 10180 10194 10205 10214 10224 10236 10246 10259 10274
10205 10201 10197 10193 10189 10184 10179 10174 10168 10163 10159 10154 10149 10143 10137 10132 10126 10120 10115 10109 10102 10095 10088 10082 10075 10069 10064 10059 10054 10050 10045 10042 10038 10035 10032 10030 10029 10029 10027 10026 10024 10022 10019 10017 10015 10015 10016 10019 10020 10021 10022 10023 10024 10025 10027 10030 10033 10036 10039 10043 10047 10051 10056 10061 10067 10073 10079 10084 10088 10094 10100 10109 10117 10127 10138 10150 10162 10175 10187 10197 10206 10216 10227 10238 10252 10267
10199 10195 10190 10187 10182 10177 10172 10167 10162 10157 10152 10147 10142 10137 10130 10124 10119 10113 10107 10101 10094 10087 10080 10074 10067 10061 10055 10050 10046 10042 10039 10035 10031 10027 10025 10023 10022 10021 10020 10019 10017 10015 10013 10010 10009 10009 10010 10012 10014 10014 10015 10016 10017 10019 10022 10024 10027 10030 10034 10038 10042 10046 10051 10056 10062 10068 10073 10076 10080 10087 10095 10103 10113 10124 10134 10145 10157 10169 10180 10190 10199 10208 10219 10231 10245 10259
10194 10189 10184 10180 10175 10171 10165 10159 10154 10149 10145 10140 10135 10130 10124 10119 10112 10106 10100 10093 10087 10079 10072 10066 10060 10054 10048 10042 10039 10035 10032 10028 10024 10020 10018 10016 10015 10014 10014 10012 10010 10009 10007 10005 10004 10004 10005 10006 10007 10008 10009 10010 10012 10014 10016 10019 10022 10025 10029 10032 10037 10041 10046 10051 10057 10062 10065 10069 10074 10082 10090 10099 10109 10119 10129 10140 10152 10162 10173 10182 10191 10201 10212 10225 10238 10250
10187 10182 10179 10173 10168 10164 10159 10154 10148 10142 10137 10133 10128 10123 10117 10112 10107 10100 10094 10087 10079 10072 10065 10059 10053 10047 10041 10036 10032 10029 10025 10022 10018 10014 10011 10009 10008 10007 10007 10006 10004 10002 10000 9999 9999 9999 10000 10001 10002 10003 10004 10005 10007 10009 10011 10014 10017 10020 10024 10027 10032 10036 10041 10046 10051 10055 10058 10063 10070 10078 10085 10094 10104 10114 10124 10135 10145 10155 10165 10175 10184 10195 10206 10219 10232 10244
10180 10175 10171 10167 10161 10156 10151 10147 10142 10137 10131 10126 10122 10116 10110 10105 10100 10094 10088 10081 10073 10066 10059 10053 10047 10041 10036 10031 10027 10024 10020 10017 10012 10009 10005 10004 10002 10002 10000 9999 9998 9996 9995 9994 9993 9994 9995 9996 9997 9998 9999 10000 10002 10004 10006 10009 10012 10015 10019 10022 10027 10032 10036 10040 10045 10048 10052 10059 10066 10074 10081 10090 10099 10109 10119 10129 10139 10149 10159 10169 10178 10189 10200 10212 10224 10235
10174 10169 10164 10159 10155 10150 10144 10139 10134 10130 10125 10120 10115 10111 10105 10099 10092 10087 10081 10075 10068 10061 10055 10049 10042 10036 10031 10027 10024 10019 10016 10012 10008 10004 10000 9998 9997 9996 9995 9994 9992 9990 9989 9988 9988 9989 9990 9991 9992 9993 9994 9995 9997 9999 10001 10004 10007 10010 10014 10018 10022 10027 10031 10035 10039 10043 10048 10055 10062 10069 10077 10085 10095 10104 10114 10124 10134 10143 10153 10163 10172 10182 10193 10205 10216 10228
10168 10164 10158 10153 10149 10144 10139 10134 10128 10124 10120 10115 10110 10105 10101 10095 10088 10082 10075 10069 10062 10056 10050 10044 10037 10031 10026 10022 10019 10015 10012 10008 10004 9999 9995 9993 9992 9991 9990 9988 9986 9984 9984 9983 9984 9984 9985 9987 9987 9989 9989 9990 9992 9994 9997 9999 10002 10006 10010 10014 10018 10022 10026 10030 10034 10039 10045 10052 10058 10065 10074 10082 10090 10100 10109 10119 10129 10138 10147 10157 10166 10175 10185 10197 10209 10222
10161 10157 10152 10147 10142 10138 10134 10130 10125 10120 10115 10110 10104 10099 10094 10089 10084 10077 10070 10064 10057 10050 10044 10038 10032 10025 10019 10015 10013 10010 10007 10003 9999 9994 9990 9989 9987 9986 9985 9983 9980 9979 9978 9979 9979 9980 9981 9982 9983 9984 9985 9986 9988 9990 9992 9995 9998 10002 10005 10009 10014 10018 10022 10026 10030 10035 10041 10047 10054 10062 10070 10079 10087 10096 10105 10114 10123 10132 10142 10151 10160 10168 10177 10189 10202 10215
10155 10151 10147 10142 10137 10132 10128 10124 10119 10115 10110 10105 10099 10092 10085 10080 10075 10070 10064 10057 10050 10044 10037 10031 10025 10019 10014 10009 10007 10004 10002 9998 9993 9989 9985 9984 9982 9981 9980 9977 9975 9974 9974 9974 9975 9975 9977 9977 9979 9979 9980 9982 9984 9985 9988 9990 9994 9997 10001 10005 10009 10014 10018 10022 10027 10032 10037 10044 10051 10059 10067 10075 10084 10092 10100 10109 10117 10126 10135 10145 10154 10162 10172 10184 10197 10210
10150 10145 10141 10137 10132 10127 10122 10118 10113 10108 10104 10098 10092 10085 10079 10072 10066 10060 10054 10049 10043 10037 10031 10025 10019 10013 10008 10004 10000 9998 9995 9992 9987 9983 9980 9978 9977 9976 9974 9972 9970 9969 9969 9969 9970 9971 9972 9974 9974 9975 9976 9978 9979 9982 9984 9987 9990 9994 9997 10001 10005 10009 10014 10018 10023 10028 10034 10040 10048 10056 10065 10074 10081 10088 10094 10102 10110 10119 10130 10140 10149 10159 10169 10181 10195 10207
10144 10139 10135 10131 10127 10122 10117 10112 10107 10102 10097 10091 10085 10079 10072 10065 10058 10052 10046 10040 10035 10029 10024 10019 10013 10007 10002 9997 9994 9992 9990 9987 9982 9979 9975 9973 9972 9971 9969 9967 9965 9964 9964 9965 9966 9967 9969 9969 9970 9971 9972 9974 9975 9978 9980 9983 9986 9990 9994 9997 10001 10005 10009 10014 10019 10024 10030 10037 10045 10054 10062 10070 10077 10082 10088 10097 10105 10115 10125 10135 10146 10156 10167 10179 10192 10205
10138 10134 10129 10125 10120 10115 10110 10105 10100 10095 10090 10084 10079 10072 10065 10057 10050 10044 10038 10032 10027 10022 10017 10012 10007 10002 9997 9992 9987 9985 9984 9981 9977 9974 9970 9969 9967 9966 9964 9962 9960 9960 9960 9962 9962 9964 9964 9965 9966 9967 9969 9970 9972 9974 9976 9979 9982 9986 9990 9994 9997 10001 10005 10010 10015 10021 10027 10035 10043 10051 10059 10065 10071 10076 10084 10092 10101 10110 10121 10132 10142 10153 10164 10175 10187 10200
10132 10128 10124 10119 10115 10109 10104 10099 10094 10089 10084 10078 10072 10065 10059 10050 10043 10036 10030 10024 10019 10014 10010 10005 10000 9996 9992 9988 9984 9979 9977 9975 9972 9969 9965 9964 9962 9961 9959 9957 9956 9956 9957 9958 9959 9960 9960 9962 9963 9964 9965 9967 9969 9970 9973 9975 9979 9982 9985 9989 9993 9997 10002 10007 10012 10019 10025 10033 10040 10049 10055 10060 10066 10072 10080 10090 10099 10109 10119 10130 10140 10149 10159 10171 10183 10195
10127 10122 10118 10114 10109 10104 10098 10093 10088 10084 10079 10073 10067 10060 10052 10045 10037 10030 10024 10018 10012 10008 10003 9999 9994 9990 9986 9983 9979 9976 9972 9970 9967 9965 9962 9959 9958 9957 9955 9954 9952 9952 9953 9954 9955 9956 9957 9958 9959 9960 9962 9964 9965 9967 9969 9972 9975 9979 9982 9985 9989 9994 9999 10004 10009 10016 10023 10030 10038 10045 10051 10056 10062 10069 10077 10087 10097 10108 10118 10128 10137 10145 10155 10167 10179 10190
10122 10117 10112 10107 10103 10098 10093 10087 10082 10077 10072 10067 10060 10053 10045 10037 10030 10024 10017 10012 10006 10001 9997 9992 9989 9985 9981 9977 9974 9971 9968 9965 9963 9960 9958 9955 9954 9952 9950 9949 9949 9949 9950 9950 9952 9952 9954 9955 9956 9957 9959 9960 9962 9964 9966 9969 9972 9975 9979 9982 9986 9990 9995 10001 10007 10014 10021 10029 10035 10042 10047 10052 10058 10066 10075 10085 10095 10107 10116 10124 10132 10140 10150 10162 10174 10187
10116 10111 10107 10102 10097 10092 10088 10082 10077 10072 10066 10060 10054 10047 10039 10031 10024 10017 10011 10005 10000 9995 9991 9987 9984 9980 9977 9973 9970 9967 9964 9961 9959 9956 9954 9952 9950 9949 9947 9946 9945 9946 9947 9947 9948 9949 9950 9952 9953 9955 9956 9957 9959 9960 9963 9965 9969 9972 9975 9979 9983 9987 9993 9999 10005 10012 10019 10026 10033 10039 10044 10049 10055 10064 10073 10083 10094 10104 10112 10119 10127 10136 10146 10158 10170 10183
10111 10106 10101 10097 10092 10087 10082 10077 10071 10065 10059 10053 10047 10040 10033 10026 10019 10012 10006 10000 9995 9991 9987 9982 9979 9975 9972 9969 9965 9963 9960 9957 9955 9952 9949 9947 9946 9945 9944 9943 9942 9943 9943 9944 9945 9946 9947 9949 9950 9952 9953 9954 9956 9957 9960 9962 9965 9969 9972 9976 9980 9985 9990 9997 10004 10010 10017 10024 10030 10035 10040 10046 10053 10062 10071 10080 10091 10100 10109 10115 10122 10132 10142 10154 10167 10180
10106 10100 10095 10092 10087 10082 10075 10070 10064 10059 10052 10046 10039 10033 10027 10020 10014 10007 10002 9997 9992 9987 9982 9978 9974 9970 9967 9964 9961 9958 9955 9954 9951 9949 9946 9944 9942 9941 9940 9940 9940 9940 9940 9941 9942 9943 9945 9946 9947 9949 9950 9952 9953 9955 9957 9959 9962 9966 9969 9973 9977 9983 9989 9995 10001 10008 10015 10020 10027 10032 10037 10044 10051 10059 10068 10078 10088 10097 10104 10110 10118 10128 10140 10152 10164 10175
10101 10095 10090 10085 10080 10075 10069 10064 10058 10052 10046 10040 10034 10028 10022 10015 10009 10003 9997 9992 9987 9982 9978 9973 9969 9965 9962 9959 9956 9954 9951 9949 9947 9945 9943 9941 9939 9938 9937 9937 9937 9937 9937 9938 9939 9940 9942 9944 9945 9946 9947 9949 9950 9952 9954 9957 9960 9964 9967 9971 9975 9980 9987 9993 9999 10005 10012 10019 10024 10029 10035 10041 10048 10056 10065 10075 10085 10093 10100 10107 10115 10125 10137 10149 10160 10170
10095 10090 10085 10079 10074 10069 10063 10057 10052 10046 10041 10035 10030 10024 10019 10012 10005 9999 9993 9988 9983 9978 9973 9969 9965 9961 9957 9955 9952 9950 9947 9945 9943 9941 9940 9938 9937 9935 9934 9934 9934 9934 9934 9935 9937 9938 9940 9941 9942 9944 9945 9946 9947 9949 9952 9954 9957 9961 9965 9969 9974 9979 9985 9991 9997 10004 10010 10016 10022 10027 10032 10039 10046 10054 10064 10073 10082 10089 10095 10103 10113 10124 10134 10145 10155 10165
10089 10084 10079 10074 10068 10063 10057 10052 10047 10042 10036 10031 10026 10020 10014 10007 10001 9994 9989 9984 9979 9974 9969 9965 9961 9957 9954 9951 9949 9946 9944 9942 9940 9938 9937 9935 9934 9932 9932 9931 9931 9931 9932 9933 9934 9936 9937 9939 9940 9940 9942 9944 9945 9947 9949 9952 9955 9959 9962 9967 9972 9977 9983 9989 9995 10002 10007 10014 10019 10025 10030 10037 10044 10053 10062 10071 10079 10086 10092 10100 10109 10120 10130 10140 10151 10161
10084 10079 10074 10069 10063 10058 10052 10047 10042 10037 10031 10026 10020 10014 10007 10001 9995 9989 9984 9979 9975 9970 9966 9962 9958 9954 9950 9948 9945 9943 9940 9939 9937 9935 9934 9932 9931 9930 9929 9929 9929 9929 9930 9931 9932 9934 9935 9936 9937 9938 9939 9940 9942 9944 9947 9949 9952 9956 9960 9965 9970 9975 9981 9987 9993 9999 10005 10012 10017 10023 10029 10035 10043 10052 10060 10069 10076 10082 10089 10097 10107 10117 10127 10138 10148 10159
10079 10074 10069 10064 10059 10054 10048 10042 10037 10031 10025 10019 10014 10007 10002 9995 9990 9985 9980 9975 9971 9967 9963 9959 9955 9952 9948 9945 9942 9940 9938 9936 9934 9932 9931 9930 9929 9927 9927 9926 9926 9927 9927 9929 9930 9932 9933 9934 9935 9936 9937 9939 9940 9942 9944 9947 9950 9954 9958 9963 9967 9973 9979 9985 9991 9997 10004 10010 10015 10021 10027 10034 10042 10050 10058 10066 10073 10080 10087 10095 10105 10115 10125 10135 10146 10157
10074 10069 10064 10059 10054 10049 10043 10037 10032 10025 10019 10014 10008 10002 9997 9991 9985 9980 9976 9972 9967 9964 9960 9956 9952 9949 9945 9942 9940 9937 9935 9933 9932 9930 9929 9927 9926 9925 9924 9924 9924 9925 9925 9927 9928 9930 9931 9932 9933 9934 9935 9936 9937 9940 9942 9945 9949 9952 9956 9961 9965 9971 9977 9983 9989 9995 10002 10008 10014 10020 10025 10032 10040 10048 10056 10064 10071 10078 10085 10094 10104 10114 10123 10134 10145 10157
10069 10064 10059 10054 10049 10044 10039 10032 10027 10020 10015 10009 10004 9998 9993 9987 9982 9977 9972 9967 9964 9960 9957 9953 9949 9946 9942 9939 9937 9935 9932 9930 9929 9927 9926 9925 9924 9923 9922 9922 9922 9923 9924 9925 9926 9927 9929 9930 9931 9932 9933 9934 9935 9937 9940 9944 9947 9950 9954 9959 9964 9969 9975 9981 9987 9994 10000 10006 10012 10018 10024 10031 10039 10047 10054 10062 10069 10076 10084 10092 10102 10112 10122 10133 10145 10158
10065 10060 10055 10050 10045 10040 10035 10029 10023 10017 10012 10006 10000 9995 9989 9984 9979 9973 9968 9964 9960 9956 9953 9950 9946 9943 9940 9937 9934 9932 9930 9928 9927 9925 9924 9922 9922 9920 9920 9920 9920 9921 9922 9923 9924 9925 9927 9928 9929 9930 9931 9932 9934 9935 9939 9942 9945 9949 9953 9957 9962 9967 9973 9979 9985 9992 9998 10004 10010 10017 10023 10030 10037 10045 10052 10060 10067 10075 10082 10092 10101 10112 10122 10134 10147 10161
10062 10057 10052 10047 10042 10037 10031 10025 10020 10014 10009 10003 9997 9992 9986 9980 9975 9970 9965 9960 9957 9953 9949 9946 9943 9940 9937 9934 9932 9930 9928 9926 9924 9923 9922 9920 9920 9919 9919 9918 9919 9919 9920 9921 9922 9924 9925 9926 9927 9929 9929 9930 9932 9934 9937 9940 9944 9947 9951 9955 9960 9965 9971 9977 9983 9989 9996 10002 10009 10015 10022 10029 10035 10043 10051 10059 10066 10074 10082 10090 10100 10111 10123 10135 10149 10163
10058 10054 10049 10044 10039 10034 10028 10022 10017 10011 10005 10000 9994 9989 9982 9977 9972 9967 9962 9957 9954 9950 9946 9943 9940 9937 9934 9932 9929 9927 9925 9924 9922 9921 9920 9919 9918 9917 9917 9916 9917 9917 9918 9919 9920 9922 9923 9924 9925 9927 9928 9929 9930 9932 9935 9939 9942 9945 9949 9954 9958 9963 9969 9975 9981 9987 9994 10000 10007 10014 10020 10027 10034 10041 10049 10057 10064 10072 10080 10090 10100 10112 10123 10135 10149 10162
10055 10050 10046 10041 10036 10030 10025 10020 10014 10008 10002 9997 9991 9985 9980 9974 9969 9964 9959 9955 9951 9947 9944 9940 9937 9935 9932 9930 9927 9925 9923 9922 9920 9919 9918 9917 9916 9915 9915 9915 9915 9915 9916 9917 9919 9920 9922 9923 9924 9925 9926 9927 9929 9930 9934 9937 9941 9945 9949 9952 9957 9962 9967 9973 9979 9985 9991 9998 10005 10012 10019 10025 10032 10040 10047 10055 10063 10071 10080 10090 10100 10112 10123 10135 10147 10160
10052 10047 10043 10038 10033 10027 10022 10017 10011 10005 9999 9994 9988 9982 9977 9972 9967 9962 9957 9953 9949 9945 9942 9938 9935 9932 9930 9928 9925 9924 9922 9920 9919 9918 9917 9915 9915 9914 9914 9913 9914 9914 9915 9915 9917 9919 9920 9921 9922 9924 9925 9926 9927 9929 9932 9935 9940 9944 9947 9951 9955 9960 9965 9971 9977 9984 9990 9996 10004 10010 10018 10024 10031 10039 10046 10054 10062 10070 10079 10089 10100 10112 10124 10135 10146 10158
10049 10044 10040 10035 10030 10024 10019 10013 10008 10002 9997 9991 9985 9980 9974 9969 9964 9959 9955 9950 9947 9943 9940 9936 9933 9930 9928 9925 9924 9922 9920 9919 9917 9916 9915 9914 9914 9912 9912 9912 9912 9912 9913 9914 9915 9917 9918 9919 9921 9922 9924 9925 9926 9928 9930 9934 9939 9942 9947 9950 9954 9959 9964 9970 9975 9982 9989 9995 10002 10009 10016 10023 10030 10037 10045 10054 10062 10070 10079 10090 10102 10114 10125 10135 10146 10156
10045 10040 10036 10032 10027 10021 10015 10010 10004 9999 9994 9988 9982 9977 9972 9967 9962 9957 9952 9949 9945 9941 9938 9935 9932 9929 9926 9924 9922 9920 9919 9917 9916 9915 9914 9913 9912 9911 9911 9910 9910 9911 9912 9912 9914 9915 9916 9918 9919 9921 9922 9924 9925 9927 9929 9933 9937 9942 9946 9950 9954 9958 9963 9969 9974 9981 9988 9994 10001 10008 10015 10022 10029 10037 10045 10054 10062 10071 10081 10092 10104 10115 10127 10138 10147 10156
10042 10037 10033 10029 10024 10018 10012 10007 10001 9996 9990 9985 9979 9974 9969 9964 9959 9955 9950 9947 9943 9939 9936 9933 9930 9927 9925 9922 9920 9918 9917 9915 9914 9914 9912 9912 9911 9910 9910 9909 9909 9910 9910 9911 9912 9914 9915 9917 9918 9920 9921 9922 9924 9926 9929 9932 9936 9940 9945 9949 9954 9957 9962 9967 9974 9980 9987 9994 10000 10007 10014 10021 10028 10036 10045 10054 10062 10072 10083 10094 10106 10118 10129 10140 10150 10158
10039 10034 10030 10025 10020 10015 10009 10004 9999 9994 9988 9982 9977 9971 9966 9962 9957 9953 9949 9945 9941 9937 9934 9931 9929 9926 9923 9921 9919 9917 9915 9914 9913 9912 9911 9910 9910 9909 9909 9908 9908 9909 9909 9910 9911 9912 9914 9915 9917 9919 9920 9922 9923 9925 9927 9930 9935 9939 9944 9949 9953 9957 9961 9966 9972 9979 9986 9993 9999 10006 10013 10020 10027 10036 10045 10054 10064 10074 10084 10096 10108 10120 10131 10142 10151 10160
10035 10031 10026 10022 10017 10012 10007 10001 9996 9990 9985 9980 9974 9969 9964 9959 9955 9950 9947 9942 9939 9935 9932 9929 9927 9924 9922 9920 9917 9915 9914 9913 9912 9911 9910 9909 9909 9908 9907 9907 9907 9907 9909 9909 9910 9911 9912 9914 9915 9917 9919 9921 9922 9924 9927 9930 9934 9938 9943 9948 9952 9956 9960 9965 9972 9978 9985 9992 9999 10005 10012 10019 10027 10035 10045 10055 10065 10075 10085 10097 10109 10120 10132 10141 10150 10160
10032 10027 10023 10019 10014 10009 10004 9998 9993 9988 9983 9977 9972 9967 9962 9957 9953 9949 9945 9940 9937 9934 9930 9927 9925 9922 9920 9918 9916 9914 9913 9912 9910 9910 9909 9908 9907 9907 9907 9906 9906 9906 9907 9908 9909 9910 9912 9913 9915 9917 9919 9920 9922 9924 9926 9929 9933 9937 9942 9947 9952 9956 9960 9965 9971 9977 9984 9991 9998 10004 10010 10018 10026 10035 10044 10054 10065 10075 10087 10098 10110 10120 10130 10140 10149 10159
10029 10024 10020 10015 10011 10006 10001 9996 9991 9985 9980 9975 9970 9964 9960 9955 9950 9947 9943 9939 9935 9932 9929 9926 9924 9921 9919 9917 9915 9913 9912 9910 9910 9909 9907 9907 9906 9906 9905 9905 9905 9905 9906 9907 9908 9909 9910 9912 9914 9915 9918 9919 9921 9923 9925 9929 9932 9937 9941 9946 9950 9955 9959 9965 9970 9977 9983 9990 9996 10002 10009 10016 10024 10034 10043 10054 10064 10075 10087 10099 10110 10120 10130 10139 10148 10158
10025 10020 10016 10012 10007 10002 9998 9993 9988 9984 9978 9973 9967 9962 9957 9952 9948 9944 9940 9937 9934 9930 9928 9925 9922 9920 9918 9915 9914 9912 9910 9910 9909 9907 9907 9905 9905 9905 9904 9904 9904 9904 9905 9906 9907 9909 9910 9912 9913 9915 9917 9919 9921 9923 9925 9928 9932 9935 9940 9944 9949 9954 9959 9964 9969 9975 9982 9989 9995 10001 10008 10015 10023 10032 10042 10053 10064 10075 10087 10099 10110 10120 10129 10138 10147 10156
10022 10017 10013 10009 10004 9999 9995 9990 9985 9980 9975 9970 9965 9960 9955 9950 9946 9942 9939 9935 9932 9929 9926 9924 9921 9919 9917 9914 9912 9911 9910 9909 9907 9907 9905 9905 9904 9904 9904 9904 9904 9904 9904 9905 9906 9907 9909 9911 9912 9914 9916 9918 9920 9922 9925 9928 9931 9935 9939 9944 9949 9954 9959 9964 9969 9975 9981 9987 9994 10000 10007 10014 10022 10031 10041 10052 10064 10076 10088 10100 10110 10120 10129 10137 10146 10155
10019 10014 10010 10005 10001 9997 9992 9987 9983 9978 9972 9967 9962 9957 9953 9949 9945 9941 9937 9934 9930 9927 9925 9922 9920 9917 9915 9913 9912 9910 9909 9907 9907 9905 9905 9904 9904 9903 9903 9902 9902 9903 9904 9904 9905 9907 9909 9910 9912 9914 9915 9918 9920 9922 9924 9927 9930 9935 9939 9944 9948 9952 9957 9962 9968 9974 9980 9987 9993 10000 10006 10013 10021 10030 10040 10052 10064 10077 10089 10100 10111 10120 10129 10137 10145 10154
10015 10011 10007 10002 9998 9994 9989 9985 9980 9975 9970 9965 9960 9955 9950 9947 9943 9939 9935 9932 9929 9926 9924 9921 9919 9916 9914 9912 9910 9909 9907 9907 9905 9905 9904 9903 9902 9902 9902 9902 9902 9902 9903 9904 9905 9906 9907 9909 9911 9914 9915 9917 9919 9922 9924 9927 9930 9934 9938 9942 9947 9951 9956 9962 9968 9974 9979 9986 9992 9999 10005 10012 10020 10030 10040 10052 10064 10076 10088 10100 10111 10120 10129 10138 10147 10155
10013 10008 10004 9999 9995 9991 9987 9982 9977 9972 9968 9963 9958 9953 9949 9945 9941 9937 9934 9930 9927 9925 9922 9920 9917 9915 9913 9911 9909 9908 9907 9905 9905 9904 9903 9902 9902 9902 9901 9901 9901 9901 9902 9903 9904 9905 9907 9909 9910 9912 9915 9917 9919 9921 9924 9927 9930 9934 9938 9942 9946 9951 9957 9962 9968 9974 9979 9985 9992 9998 10005 10012 10020 10029 10039 10050 10062 10074 10086 10099 10110 10120 10129 10139 10147 10157
10010 10005 10000 9996 9992 9988 9984 9980 9975 9970 9965 9960 9955 9951 9947 9943 9939 9935 9932 9929 9926 9924 9920 9919 9916 9914 9912 9910 9909 9907 9906 9905 9904 9903 9902 9902 9901 9900 9900 9900 9900 9900 9901 9902 9903 9905 9906 9908 9910 9912 9914 9917 9919 9921 9924 9927 9930 9934 9937 9942 9946 9950 9956 9961 9967 9973 9979 9985 9991 9998 10005 10012 10020 10028 10037 10048 10060 10073 10085 10097 10109 10119 10129 10138 10147 10156
10007 10002 9998 9994 9989 9985 9982 9977 9973 9968 9963 9958 9954 9949 9945 9941 9937 9934 9931 9928 9925 9922 9919 9917 9915 9913 9911 9909 9907 9906 9905 9904 9903 9902 9902 9901 9900 9900 9900 9900 9900 9900 9900 9901 9902 9904 9905 9907 9909 9912 9914 9916 9918 9920 9923 9926 9929 9933 9937 9941 9945 9950 9955 9960 9966 9972 9979 9985 9991 9998 10005 10012 10019 10027 10035 10046 10059 10072 10084 10097 10107 10118 10128 10137 10147 10155
10005 10000 9995 9991 9987 9983 9979 9975 9970 9966 9961 9956 9951 9947 9943 9939 9936 9932 9929 9926 9924 9920 9918 9916 9914 9912 9910 9908 9907 9905 9904 9903 9902 9902 9901 9900 9900 9899 9899 9899 9899 9899 9900 9900 9902 9903 9904 9906 9909 9911 9913 9915 9918 9920 9922 9925 9929 9932 9936 9940 9945 9949 9954 9960 9966 9972 9978 9984 9991 9998 10005 10012 10019 10026 10035 10046 10058 10070 10083 10095 10107 10117 10126 10136 10145 10155
10002 9998 9993 9989 9984 9980 9976 9972 9968 9964 9959 9954 9949 9945 9941 9938 9934 9931 9928 9925 9922 9919 9917 9915 9912 9910 9909 9907 9905 9904 9903 9902 9902 9901 9900 9900 9899 9899 9899 9899 9899 9899 9899 9900 9901 9902 9904 9905 9908 9910 9912 9915 9917 9920 9922 9925 9928 9932 9936 9940 9944 9949 9954 9960 9965 9972 9978 9984 9990 9997 10005 10012 10019 10027 10035 10045 10057 10069 10081 10094 10105 10115 10125 10135 10144 10154
10000 9995 9991 9986 9982 9977 9974 9970 9966 9962 9957 9952 9947 9943 9939 9936 9933 9930 9927 9924 9921 9918 9915 9914 9911 9909 9908 9906 9905 9904 9902 9902 9900 9900 9900 9899 9899 9898 9898 9898 9898 9898 9899 9899 9900 9902 9903 9905 9907 9910 9912 9915 9917 9919 9922 9925 9928 9932 9935 9939 9944 9949 9954 9959 9965 9971 9977 9984 9990 9997 10004 10012 10020 10028 10035 10044 10055 10067 10079 10091 10103 10114 10125 10134 10144 10153
9997 9993 9989 9984 9979 9975 9971 9967 9964 9959 9955 9950 9945 9942 9937 9934 9931 9928 9925 9922 9920 9917 9915 9912 9910 9909 9907 9905 9904 9902 9902 9900 9900 9899 9899 9899 9898 9897 9897 9897 9897 9898 9898 9899 9900 9901 9903 9904 9907 9909 9912 9914 9917 9919 9922 9925 9928 9931 9935 9939 9944 9948 9953 9959 9964 9971 9977 9984 9990 9997 10004 10012 10020 10028 10035 10043 10054 10065 10077 10089 10100 10112 10122 10132 10142 10151